Retour au catalogue

THORAD AGENA D DEB

ActifPO
NORAD 4867·DEBRIS·🇺🇸 United States

Lancé Apr 8, 1970 depuis Vandenberg Space Force Base

Loading…

Prochains Passages (prochaines 24 heures)

TLE

FraisSource: Space-Track

Époque: Sep 14, 2026, 07:02 UTC

1 04867U 70025EX  26257.29321003  .00000587  00000-0  39195-3 0  9991
2 04867  99.6380 206.0163 0123360 232.7714 126.2143 14.01833427867228

Suivez THORAD AGENA D DEB en temps réel avec AllMySat

Download on the App Store